TimeCDT,TemperatureF,Dew PointF,Humidity,Sea Level PressureIn,VisibilityMPH,Wind Direction,Wind SpeedMPH,Gust SpeedMPH,PrecipitationIn,Events,Conditions,WindDirDegrees,DateUTC
12:42 AM,57.2,57.2,100,29.65,10.0,Variable,4.6,-,N/A,,Overcast,0,2012-10-02 05:42:00
12:55 AM,57.2,57.2,100,29.65,10.0,WNW,3.5,-,0.01,,Overcast,300,2012-10-02 05:55:00
1:20 AM,57.2,57.2,100,29.66,9.0,Variable,3.5,-,N/A,,Overcast,0,2012-10-02 06:20:00
1:26 AM,57.2,57.2,100,29.66,9.0,NW,3.5,-,N/A,,Overcast,320,2012-10-02 06:26:00
1:53 AM,57.2,57.2,100,29.66,5.0,Calm,Calm,-,N/A,,Overcast,0,2012-10-02 06:53:00
1:55 AM,56.8,56.8,100,29.66,5.0,Calm,Calm,-,N/A,,Overcast,0,2012-10-02 06:55:00
2:13 AM,57.2,57.2,100,29.67,4.0,Calm,Calm,-,N/A,,Overcast,0,2012-10-02 07:13:00
2:29 AM,57.2,57.2,100,29.67,4.0,Calm,Calm,-,N/A,,Overcast,0,2012-10-02 07:29:00
2:44 AM,57.2,57.2,100,29.67,5.0,Calm,Calm,-,N/A,,Overcast,0,2012-10-02 07:44:00
2:46 AM,57.2,57.2,100,29.67,5.0,Calm,Calm,-,N/A,,Overcast,0,2012-10-02 07:46:00
2:53 AM,57.2,57.2,100,29.67,5.0,Calm,Calm,-,N/A,,Light Drizzle,0,2012-10-02 07:53:00
2:55 AM,56.8,56.8,100,29.66,4.0,NW,3.5,-,0.00,,Light Drizzle,310,2012-10-02 07:55:00
2:57 AM,57.2,57.2,100,29.67,4.0,WNW,4.6,-,N/A,,Light Drizzle,300,2012-10-02 07:57:00
3:15 AM,57.2,57.2,100,29.66,4.0,Calm,Calm,-,N/A,,Overcast,0,2012-10-02 08:15:00
3:29 AM,57.2,57.2,100,29.66,5.0,Calm,Calm,-,N/A,,Overcast,0,2012-10-02 08:29:00
3:55 AM,56.7,56.7,100,29.67,8.0,Calm,Calm,-,0.01,,Overcast,0,2012-10-02 08:55:00
4:47 AM,57.2,57.2,100,29.68,8.0,WNW,3.5,-,N/A,,Overcast,300,2012-10-02 09:47:00
4:51 AM,57.2,57.2,100,29.68,9.0,Calm,Calm,-,N/A,,Overcast,0,2012-10-02 09:51:00
4:55 AM,56.7,56.7,100,29.68,10.0,WNW,3.5,-,N/A,,Overcast,300,2012-10-02 09:55:00
4:59 AM,57.2,57.2,100,29.68,10.0,WNW,3.5,-,N/A,,Overcast,300,2012-10-02 09:59:00
5:02 AM,57.2,57.2,100,29.68,10.0,WNW,4.6,-,N/A,,Overcast,300,2012-10-02 10:02:00
5:05 AM,57.2,57.2,100,29.68,9.0,West,4.6,-,N/A,,Overcast,280,2012-10-02 10:05:00
5:09 AM,57.2,57.2,100,29.69,8.0,West,5.8,-,N/A,,Overcast,280,2012-10-02 10:09:00
5:16 AM,57.2,57.2,100,29.68,8.0,WNW,3.5,-,N/A,,Overcast,290,2012-10-02 10:16:00
5:55 AM,56.3,56.3,100,29.70,6.0,NW,4.6,-,N/A,,Overcast,310,2012-10-02 10:55:00
5:58 AM,55.4,55.4,100,29.70,6.0,WNW,3.5,-,N/A,,Light Drizzle,300,2012-10-02 10:58:00
6:09 AM,55.4,55.4,100,29.70,4.0,WNW,4.6,-,N/A,,Light Drizzle,300,2012-10-02 11:09:00
6:19 AM,55.4,55.4,100,29.70,4.0,WNW,4.6,-,N/A,,Light Drizzle,300,2012-10-02 11:19:00
6:22 AM,55.4,55.4,100,29.71,5.0,WNW,5.8,-,N/A,,Light Drizzle,300,2012-10-02 11:22:00
6:23 AM,55.4,55.4,100,29.71,5.0,Variable,5.8,-,N/A,,Light Drizzle,0,2012-10-02 11:23:00
6:33 AM,55.4,55.4,100,29.71,6.0,WNW,3.5,-,N/A,,Light Drizzle,300,2012-10-02 11:33:00
6:39 AM,55.4,55.4,100,29.71,7.0,Calm,Calm,-,N/A,,Overcast,0,2012-10-02 11:39:00
6:40 AM,55.4,55.4,100,29.71,8.0,Calm,Calm,-,N/A,,Overcast,0,2012-10-02 11:40:00
6:46 AM,55.4,55.4,100,29.72,10.0,WNW,4.6,-,N/A,,Overcast,300,2012-10-02 11:46:00
6:53 AM,55.4,55.4,100,29.72,9.0,WNW,3.5,-,N/A,,Overcast,290,2012-10-02 11:53:00
6:55 AM,56.1,56.1,100,29.72,9.0,Variable,3.5,-,0.00,,Overcast,0,2012-10-02 11:55:00
7:05 AM,55.4,55.4,100,29.72,6.0,WNW,5.8,-,N/A,,Overcast,300,2012-10-02 12:05:00
7:13 AM,55.4,55.4,100,29.73,4.0,WNW,3.5,-,N/A,,Overcast,300,2012-10-02 12:13:00
7:17 AM,55.4,55.4,100,29.73,2.5,WNW,3.5,-,N/A,,Overcast,290,2012-10-02 12:17:00
7:32 AM,57.2,57.2,100,29.73,2.0,WNW,4.6,-,N/A,,Light Drizzle,290,2012-10-02 12:32:00
7:42 AM,57.2,57.2,100,29.73,3.0,WNW,5.8,-,N/A,,Light Drizzle,290,2012-10-02 12:42:00
7:45 AM,57.2,57.2,100,29.73,4.0,WNW,5.8,-,N/A,,Overcast,290,2012-10-02 12:45:00
7:55 AM,56.3,56.3,100,29.74,7.0,WNW,6.9,-,0.01,,Overcast,290,2012-10-02 12:55:00
8:41 AM,57.2,57.2,100,29.76,8.0,WNW,6.9,-,N/A,,Overcast,300,2012-10-02 13:41:00
8:55 AM,56.5,56.3,99,29.76,9.0,WNW,6.9,-,N/A,,Overcast,300,2012-10-02 13:55:00
9:09 AM,55.4,55.4,100,29.77,10.0,WNW,6.9,-,N/A,,Overcast,290,2012-10-02 14:09:00
9:33 AM,57.2,57.2,100,29.78,10.0,WNW,6.9,-,N/A,,Overcast,300,2012-10-02 14:33:00
9:55 AM,57.2,57.2,100,29.78,10.0,Variable,4.6,-,N/A,,Overcast,0,2012-10-02 14:55:00
10:30 AM,57.2,57.2,100,29.79,10.0,NW,4.6,-,N/A,,Overcast,310,2012-10-02 15:30:00
10:55 AM,58.6,58.6,100,29.79,10.0,WNW,4.6,-,N/A,,Overcast,290,2012-10-02 15:55:00
11:32 AM,59.0,59.0,100,29.80,10.0,West,5.8,-,N/A,,Overcast,280,2012-10-02 16:32:00
11:34 AM,59.0,59.0,100,29.80,10.0,West,5.8,-,N/A,,Overcast,260,2012-10-02 16:34:00
11:41 AM,59.0,59.0,100,29.80,10.0,WSW,8.1,-,N/A,,Overcast,250,2012-10-02 16:41:00
11:55 AM,58.3,58.3,100,29.80,10.0,West,5.8,-,N/A,,Overcast,260,2012-10-02 16:55:00
12:02 PM,59.0,59.0,100,29.80,8.0,West,5.8,-,N/A,,Light Drizzle,260,2012-10-02 17:02:00
12:04 PM,57.2,57.2,100,29.80,6.0,West,4.6,-,N/A,,Light Drizzle,260,2012-10-02 17:04:00
12:11 PM,57.2,57.2,100,29.80,6.0,West,4.6,-,N/A,,Overcast,280,2012-10-02 17:11:00
12:13 PM,57.2,57.2,100,29.80,7.0,West,5.8,-,N/A,,Overcast,280,2012-10-02 17:13:00
12:24 PM,57.2,57.2,100,29.80,10.0,WSW,5.8,-,N/A,,Overcast,250,2012-10-02 17:24:00
12:30 PM,57.2,57.2,100,29.80,10.0,SW,5.8,-,N/A,,Overcast,230,2012-10-02 17:30:00
12:36 PM,59.0,59.0,100,29.80,10.0,SW,4.6,-,N/A,,Overcast,230,2012-10-02 17:36:00
12:48 PM,59.0,59.0,100,29.80,10.0,WSW,5.8,-,N/A,,Overcast,250,2012-10-02 17:48:00
12:55 PM,58.5,58.5,100,29.80,10.0,WSW,6.9,-,0.00,,Overcast,240,2012-10-02 17:55:00
12:58 PM,59.0,59.0,100,29.80,10.0,WSW,10.4,-,N/A,,Overcast,250,2012-10-02 17:58:00
1:14 PM,59.0,59.0,100,29.81,10.0,SW,6.9,-,N/A,,Overcast,230,2012-10-02 18:14:00
1:23 PM,59.0,59.0,100,29.81,10.0,WSW,9.2,-,N/A,,Overcast,240,2012-10-02 18:23:00
1:28 PM,59.0,59.0,100,29.81,10.0,SW,10.4,-,N/A,,Overcast,230,2012-10-02 18:28:00
1:38 PM,59.0,59.0,100,29.81,10.0,West,10.4,-,N/A,,Overcast,260,2012-10-02 18:38:00
1:55 PM,57.4,57.4,100,29.81,10.0,West,10.4,-,N/A,,Overcast,270,2012-10-02 18:55:00
2:47 PM,59.0,59.0,100,29.82,10.0,WSW,11.5,-,N/A,,Overcast,250,2012-10-02 19:47:00
2:49 PM,59.0,59.0,100,29.82,10.0,WSW,11.5,-,N/A,,Overcast,250,2012-10-02 19:49:00
2:52 PM,59.0,59.0,100,29.82,10.0,WSW,11.5,-,N/A,,Overcast,250,2012-10-02 19:52:00
2:54 PM,59.0,59.0,100,29.82,10.0,WSW,9.2,-,N/A,,Overcast,250,2012-10-02 19:54:00
2:55 PM,58.1,58.1,100,29.82,10.0,WSW,9.2,-,N/A,,Overcast,250,2012-10-02 19:55:00
3:31 PM,57.2,57.2,100,29.83,10.0,WSW,11.5,-,N/A,,Overcast,250,2012-10-02 20:31:00
3:55 PM,57.6,57.6,100,29.85,10.0,WSW,10.4,-,N/A,,Overcast,250,2012-10-02 20:55:00
4:14 PM,57.2,57.2,100,29.85,4.0,WSW,4.6,-,N/A,,Overcast,250,2012-10-02 21:14:00
4:25 PM,57.2,57.2,100,29.86,10.0,West,4.6,-,N/A,,Overcast,260,2012-10-02 21:25:00
4:37 PM,57.2,57.2,100,29.86,10.0,West,6.9,-,N/A,,Overcast,260,2012-10-02 21:37:00
4:39 PM,57.2,57.2,100,29.87,10.0,West,5.8,-,N/A,,Overcast,260,2012-10-02 21:39:00
4:55 PM,57.4,57.4,100,29.87,10.0,WSW,8.1,-,N/A,,Overcast,240,2012-10-02 21:55:00
5:23 PM,57.2,57.2,100,29.88,5.0,WSW,10.4,-,N/A,,Overcast,240,2012-10-02 22:23:00
5:25 PM,57.2,57.2,100,29.88,4.0,WSW,10.4,-,N/A,,Light Drizzle,250,2012-10-02 22:25:00
5:34 PM,57.2,57.2,100,29.88,4.0,WSW,10.4,-,N/A,,Overcast,250,2012-10-02 22:34:00
5:41 PM,57.2,57.2,100,29.88,7.0,West,6.9,-,N/A,,Overcast,260,2012-10-02 22:41:00
5:48 PM,57.2,57.2,100,29.88,10.0,West,8.1,-,N/A,,Overcast,260,2012-10-02 22:48:00
5:55 PM,56.8,56.8,100,29.88,10.0,West,6.9,-,0.00,,Overcast,260,2012-10-02 22:55:00
5:59 PM,57.2,57.2,100,29.88,10.0,West,6.9,-,N/A,,Mostly Cloudy,260,2012-10-02 22:59:00
6:05 PM,57.2,57.2,100,29.88,10.0,West,6.9,-,N/A,,Mostly Cloudy,260,2012-10-02 23:05:00
6:42 PM,57.2,57.2,100,29.89,10.0,West,5.8,-,N/A,,Overcast,260,2012-10-02 23:42:00
6:52 PM,57.2,57.2,100,29.90,10.0,West,5.8,-,N/A,,Overcast,270,2012-10-02 23:52:00
6:55 PM,57.2,57.2,100,29.90,10.0,West,5.8,-,N/A,,Overcast,270,2012-10-02 23:55:00
7:55 PM,56.5,56.5,100,29.91,10.0,SW,6.9,-,N/A,,Overcast,230,2012-10-03 00:55:00
8:55 PM,56.3,56.3,100,29.94,10.0,Calm,Calm,-,N/A,,Overcast,0,2012-10-03 01:55:00
9:55 PM,56.5,56.5,100,29.96,10.0,SSW,3.5,-,N/A,,Overcast,210,2012-10-03 02:55:00
10:55 PM,55.6,55.6,100,29.97,10.0,South,4.6,-,N/A,,Mostly Cloudy,180,2012-10-03 03:55:00
11:55 PM,56.1,56.1,100,29.96,10.0,SSW,3.5,-,N/A,,Overcast,210,2012-10-03 04:55:00